Weather History for Dayton, OH

Change the Weather History Date:

Wednesday, March 6, 2013

  Actual Average Record
Temperature  
Mean Temperature 31 °F 37 °F  
Max Temperature 33 °F 45 °F 74 °F (1910)
Min Temperature 28 °F 28 °F 0 °F (1901)
Degree Days  
Heating Degree Days 34 28  
Month to date heating degree days 211 175  
Since 1 July heating degree days 4261 4454  
Cooling Degree Days 0 0  
Month to date cooling degree days 0 0  
Year to date cooling degree days 0 0  
Moisture  
Dew Point 26 °F    
Average Humidity 88    
Maximum Humidity 100    
Minimum Humidity 75    
Precipitation  
Precipitation 0.21 in 0.09 in 1.10 in (1945)
Month to date precipitation 0.75 0.53  
Year to date precipitation 5.14 5.48  
Snow  
Snow 2.10 in 0.10 in 2.70 in (1989)
Month to date snowfall 5.3 0.9  
Since 1 July snowfall 27.0 20.2  
Snow Depth 5.00 in    
Sea Level Pressure  
Sea Level Pressure 30.02 in    
Wind  
Wind Speed 13 mph (NNW)    
Max Wind Speed 23 mph    
Max Gust Speed 29 mph    
Visibility 5 miles    
Events Fog , Snow    
T = Trace of Precipitation, MM = Missing Value Source: NWS Daily Summary

Daily Weather History Graph

Daily Weather History Graph

Search for Another Location

Airport:

Trip Planner

Search our weather history database for the weather conditions in past years. The results will help you decide how hot, cold, wet, or windy it might be!

Date:

Astronomy

Mar. 06, 2013 Rise Set
Actual Time 7:02 AM EST 6:34 PM EST
Civil Twilight 6:35 AM EST 7:01 PM EST
Nautical Twilight 6:03 AM EST 7:32 PM EST
Astronomical Twilight 5:32 AM EST 8:04 PM EST
Moon 3:10 AM EST (3/6) 1:15 PM EST (3/6)
Length of Visible Light 12h 26m
Length of Day
11h 32m
Waning Crescent, 30% of the Moon is Illuminated
Mar 6
Waning Crescent
Mar 11
New
Mar 19
First Quarter
Mar 27
Full
Apr 3
Last Quarter

Hourly Weather History & Observations

Time (EST) Temp. Windchill Dew Point Humidity Pressure Visibility Wind Dir Wind Speed Gust Speed Precip Events Conditions
12:56 AM 30.0 °F 20.0 °F 28.9 °F 96% 29.65 in 0.8 mi North 12.7 mph - 0.02 in Snow Light Snow
1:07 AM 30.2 °F 20.2 °F 28.4 °F 93% 29.63 in 0.8 mi North 12.7 mph - 0.00 in Snow Light Snow
1:56 AM 30.0 °F 18.7 °F 28.0 °F 92% 29.68 in 0.8 mi North 16.1 mph 24.2 mph 0.01 in Snow Light Snow
2:56 AM 28.9 °F 16.9 °F 28.0 °F 96% 29.70 in 0.8 mi NNW 17.3 mph 24.2 mph 0.01 in Snow Light Snow
3:56 AM 28.0 °F 15.3 °F 27.0 °F 96% 29.73 in 0.5 mi North 18.4 mph - 0.02 in Fog , Snow Snow
4:56 AM 28.0 °F 15.7 °F 26.1 °F 92% 29.78 in 0.8 mi NNW 17.3 mph 26.5 mph 0.00 in Snow Light Snow
5:19 AM 28.4 °F 16.2 °F 26.6 °F 93% 29.77 in 1.0 mi North 17.3 mph 28.8 mph 0.00 in Snow Light Snow
5:39 AM 28.4 °F 16.2 °F 26.6 °F 93% 29.79 in 4.0 mi North 17.3 mph - 0.00 in   Overcast
5:56 AM 28.9 °F 16.1 °F 26.1 °F 89% 29.82 in 4.0 mi NNW 19.6 mph - 0.00 in   Overcast
6:56 AM 28.0 °F 15.3 °F 25.0 °F 88% 29.88 in 6.0 mi North 18.4 mph - N/A   Overcast
7:10 AM 28.4 °F 15.8 °F 24.8 °F 86% 29.86 in 6.0 mi NNW 18.4 mph - N/A   Overcast
7:56 AM 28.0 °F 16.1 °F 25.0 °F 88% 29.94 in 5.0 mi North 16.1 mph - N/A   Overcast
8:56 AM 28.4 °F 16.6 °F 24.8 °F 86% 29.97 in 5.0 mi North 16.1 mph - N/A   Overcast
9:56 AM 28.0 °F 15.7 °F 25.0 °F 88% 30.04 in 5.0 mi NNW 17.3 mph - N/A   Overcast
10:56 AM 28.9 °F 17.3 °F 26.1 °F 89% 30.08 in 6.0 mi NNW 16.1 mph - N/A   Overcast
11:56 AM 30.0 °F 17.5 °F 26.1 °F 85% 30.10 in 6.0 mi NW 19.6 mph - N/A   Overcast
12:56 PM 30.9 °F 19.8 °F 26.1 °F 82% 30.13 in 6.0 mi NNW 16.1 mph - N/A   Haze
1:56 PM 32.0 °F 22.5 °F 27.0 °F 82% 30.14 in 5.0 mi NNW 12.7 mph - N/A   Haze
2:06 PM 32.0 °F 21.6 °F 26.6 °F 80% 30.11 in 6.0 mi NNW 15.0 mph - N/A   Haze
2:56 PM 33.1 °F 23.9 °F 27.0 °F 78% 30.15 in 5.0 mi NNW 12.7 mph - N/A   Haze
3:56 PM 32.0 °F 22.1 °F 27.0 °F 82% 30.18 in 5.0 mi NNW 13.8 mph - N/A   Haze
4:56 PM 32.0 °F 23.6 °F 26.1 °F 79% 30.19 in 5.0 mi NNW 10.4 mph - N/A   Haze
5:56 PM 32.0 °F 24.2 °F 26.1 °F 79% 30.22 in 5.0 mi NW 9.2 mph - N/A   Haze
6:56 PM 32.0 °F 23.6 °F 26.1 °F 79% 30.24 in 7.0 mi WNW 10.4 mph - N/A   Overcast
7:56 PM 30.9 °F 24.3 °F 26.1 °F 82% 30.25 in 7.0 mi NW 6.9 mph - N/A   Overcast
8:56 PM 30.9 °F 26.2 °F 26.1 °F 82% 30.26 in 7.0 mi WNW 4.6 mph - N/A   Overcast
9:56 PM 30.9 °F 25.2 °F 27.0 °F 85% 30.26 in 7.0 mi WNW 5.8 mph - N/A   Overcast
10:56 PM 30.9 °F 25.2 °F 27.0 °F 85% 30.26 in 7.0 mi WNW 5.8 mph - N/A   Overcast
11:11 PM 30.2 °F 25.4 °F 26.6 °F 86% 30.23 in 7.0 mi WNW 4.6 mph - N/A   Overcast
11:56 PM 30.9 °F 25.2 °F 27.0 °F 85% 30.26 in 7.0 mi WNW 5.8 mph - N/A   Overcast